HAWK-2C

Last updated on Tue Sep 22 2026 00:03:52 GMT+0000 (Coordinated Universal Time)

1 47502U 21006CT 26264.35893301 .00004156 00000+0 12199-3 0 9999 2 47502 97.2199 306.7719 0005933 201.1475 158.9525 15.35686057314256
UTC large
Height (km)
Speed (km/s)
/
Latitude / Longitude
Inclination (degrees)
Orbital Period (minutes)
Azimuth
Elevation
Range (km)
Doppler Factor

Next 0 passes for location: London (51.5072 / 0.1276)

No passes found over London.
HAWK-2C